| time (UTC) | temp F | wind direction | speed knots | gust knots | rain 1hr in | rain 24hr in | rain mn in | humidity % | barometer mb |
| 20260906161559 | 93 | 165 | 0.0 | 1.7 | 0.00 | 0.31 | 0.00 | 63 | 1011.6 |
| 20260906160057 | 91 | 132 | 0.0 | 0.9 | 0.00 | 0.31 | 0.00 | 65 | 1011.7 |
| 20260906154555 | 91 | 121 | 1.7 | 4.3 | 0.00 | 0.31 | 0.00 | 64 | 1011.9 |
| 20260906153153 | 91 | 140 | 0.0 | 1.7 | 0.00 | 0.31 | 0.00 | 66 | 1012.0 |
| 20260906151558 | 89 | 147 | 0.0 | 0.9 | 0.00 | 0.31 | 0.00 | 69 | 1012.0 |
| 20260906150049 | 89 | 148 | 0.0 | 0.9 | 0.00 | 0.31 | 0.00 | 70 | 1012.1 |
| 20260906144550 | 89 | 134 | 0.0 | 1.7 | 0.00 | 0.31 | 0.00 | 70 | 1012.0 |
| 20260906143047 | 86 | 139 | 0.0 | 0.9 | 0.00 | 0.31 | 0.00 | 74 | 1012.0 |
| 20260906141544 | 85 | 148 | 0.0 | 0.0 | 0.00 | 0.31 | 0.00 | 77 | 1012.0 |
| 20260906140037 | 83 | 144 | 0.0 | 0.9 | 0.00 | 0.31 | 0.00 | 78 | 1012.2 |
| 20260906134537 | 82 | 141 | 0.0 | 0.9 | 0.00 | 0.31 | 0.00 | 80 | 1012.2 |
| 20260906133029 | 80 | 155 | 0.0 | 0.0 | 0.00 | 0.31 | 0.00 | 83 | 1012.2 |
| 20260906131525 | 78 | 155 | 0.0 | 0.0 | 0.00 | 0.31 | 0.00 | 86 | 1012.3 |
| 20260906130021 | 76 | 155 | 0.0 | 0.0 | 0.00 | 0.31 | 0.00 | 89 | 1012.2 |
| 20260906124520 | 75 | 155 | 0.0 | 0.0 | 0.00 | 0.31 | 0.00 | 95 | 1012.4 |
| 20260906123034 | 74 | 155 | 0.0 | 0.0 | 0.00 | 0.31 | 0.00 | 95 | 1012.3 |
| 20260906121519 | 73 | 155 | 0.0 | 0.0 | 0.00 | 0.31 | 0.00 | 95 | 1012.3 |
| 20260906120017 | 73 | 155 | 0.0 | 0.0 | 0.00 | 0.31 | 0.00 | 95 | 1012.1 |
| 20260906114516 | 73 | 155 | 0.0 | 0.0 | 0.00 | 0.31 | 0.00 | 95 | 1012.1 |
| 20260906113015 | 73 | 155 | 0.0 | 0.0 | 0.00 | 0.31 | 0.00 | 94 | 1012.0 |
| 20260906111514 | 72 | 155 | 0.0 | 0.0 | 0.00 | 0.31 | 0.00 | 94 | 1012.0 |
| 20260906110012 | 72 | 155 | 0.0 | 0.0 | 0.00 | 0.31 | 0.00 | 94 | 1011.8 |
| 20260906104514 | 72 | 155 | 0.0 | 0.0 | 0.00 | 0.31 | 0.00 | 94 | 1011.7 |
| 20260906103011 | 72 | 155 | 0.0 | 0.0 | 0.00 | 0.31 | 0.00 | 94 | 1011.5 |
| 20260906101521 | 72 | 155 | 0.0 | 0.0 | 0.00 | 0.31 | 0.00 | 94 | 1011.6 |
| 20260906100011 | 72 | 155 | 0.0 | 0.0 | 0.00 | 0.31 | 0.00 | 94 | 1011.5 |
| 20260906094510 | 72 | 155 | 0.0 | 0.0 | 0.00 | 0.31 | 0.00 | 93 | 1011.4 |
| 20260906093013 | 72 | 155 | 0.0 | 0.0 | 0.00 | 0.31 | 0.00 | 93 | 1011.4 |
| 20260906091508 | 73 | 155 | 0.0 | 0.0 | 0.00 | 0.31 | 0.00 | 93 | 1011.3 |
| 20260906090024 | 73 | 155 | 0.0 | 0.0 | 0.00 | 0.31 | 0.00 | 93 | 1011.1 |
| 20260906084507 | 73 | 155 | 0.0 | 0.0 | 0.00 | 0.31 | 0.00 | 94 | 1011.2 |
| 20260906083006 | 73 | 150 | 0.0 | 0.0 | 0.00 | 0.31 | 0.00 | 94 | 1011.1 |
| 20260906081610 | 73 | 149 | 0.0 | 0.0 | 0.00 | 0.31 | 0.00 | 93 | 1010.9 |
| 20260906080004 | 73 | 149 | 0.0 | 0.0 | 0.00 | 0.31 | 0.00 | 93 | 1010.8 |
| 20260906074503 | 73 | 149 | 0.0 | 0.0 | 0.00 | 0.31 | 0.00 | 93 | 1010.9 |
| 20260906073002 | 73 | 149 | 0.0 | 0.0 | 0.00 | 0.31 | 0.00 | 92 | 1010.7 |
| 20260906071559 | 74 | 149 | 0.0 | 0.0 | 0.00 | 0.31 | 0.00 | 91 | 1011.1 |
| 20260906070058 | 75 | 149 | 0.0 | 0.9 | 0.00 | 0.31 | 0.00 | 91 | 1011.1 |
| 20260906064557 | 74 | 165 | 0.0 | 0.0 | 0.00 | 0.31 | 0.00 | 93 | 1011.3 |
| 20260906063056 | 74 | 165 | 0.0 | 0.0 | 0.00 | 0.31 | 0.00 | 93 | 1011.3 |
| 20260906061555 | 74 | 165 | 0.0 | 0.0 | 0.00 | 0.31 | 0.00 | 92 | 1011.5 |
| 20260906060053 | 74 | 165 | 0.0 | 0.0 | 0.00 | 0.31 | 0.00 | 91 | 1011.5 |
| 20260906054550 | 75 | 165 | 0.0 | 0.0 | 0.00 | 0.31 | 0.00 | 91 | 1011.5 |
| 20260906053050 | 75 | 165 | 0.0 | 0.0 | 0.00 | 0.31 | 0.00 | 89 | 1011.6 |
| 20260906051559 | 76 | 165 | 0.0 | 0.0 | 0.00 | 0.31 | 0.00 | 88 | 1011.6 |
| 20260906050101 | 75 | 158 | 0.0 | 0.9 | 0.00 | 0.31 | 0.00 | 91 | 1011.5 |
| 20260906044550 | 75 | 149 | 0.0 | 0.0 | 0.00 | 0.31 | 0.00 | 90 | 1011.7 |
| 20260906043052 | 75 | 149 | 0.0 | 0.0 | 0.00 | 0.31 | 0.00 | 90 | 1011.8 |
| 20260906041541 | 76 | 149 | 0.0 | 0.0 | 0.00 | 0.31 | 0.00 | 89 | 1011.6 |
| 20260906040039 | 76 | 149 | 0.0 | 0.0 | 0.00 | 0.31 | 0.31 | 89 | 1011.4 |
| 20260906034541 | 77 | 149 | 0.0 | 0.0 | 0.00 | 0.31 | 0.31 | 88 | 1011.5 |
| 20260906033037 | 78 | 149 | 0.0 | 0.9 | 0.00 | 0.31 | 0.31 | 87 | 1011.8 |
| 20260906031545 | 77 | 150 | 0.0 | 0.9 | 0.00 | 0.31 | 0.31 | 89 | 1011.9 |
| 20260906030036 | 77 | 172 | 0.0 | 0.0 | 0.00 | 0.31 | 0.31 | 86 | 1012.2 |
| 20260906024535 | 78 | 172 | 0.0 | 0.0 | 0.00 | 0.31 | 0.31 | 85 | 1012.4 |
| 20260906023035 | 78 | 172 | 0.0 | 0.0 | 0.00 | 0.31 | 0.31 | 84 | 1012.5 |
| 20260906021534 | 79 | 173 | 0.0 | 1.7 | 0.00 | 0.31 | 0.31 | 84 | 1012.4 |
| 20260906020135 | 79 | 124 | 0.0 | 0.9 | 0.00 | 0.31 | 0.31 | 85 | 1012.2 |
| 20260906014533 | 80 | 158 | 0.0 | 0.9 | 0.00 | 0.31 | 0.31 | 85 | 1012.1 |
| 20260906013053 | 78 | 142 | 0.0 | 0.0 | 0.00 | 0.31 | 0.31 | 87 | 1011.6 |
| 20260906011534 | 78 | 141 | 0.0 | 0.0 | 0.00 | 0.31 | 0.31 | 87 | 1011.1 |
| 20260906010032 | 78 | 142 | 0.0 | 0.0 | 0.00 | 0.31 | 0.31 | 87 | 1010.8 |
| 20260906004532 | 79 | 142 | 0.0 | 0.0 | 0.00 | 0.31 | 0.31 | 86 | 1010.5 |
| 20260906003030 | 79 | 142 | 0.0 | 0.0 | 0.00 | 0.31 | 0.31 | 84 | 1010.6 |
| 20260906001530 | 80 | 142 | 0.0 | 0.0 | 0.00 | 0.31 | 0.31 | 84 | 1010.5 |
| 20260906000028 | 80 | 142 | 0.0 | 0.0 | 0.00 | 0.31 | 0.31 | 83 | 1010.5 |
| 20260905234527 | 81 | 142 | 0.0 | 0.0 | 0.00 | 0.31 | 0.31 | 79 | 1010.6 |
| 20260905233026 | 82 | 142 | 0.0 | 0.0 | 0.00 | 0.31 | 0.31 | 78 | 1010.6 |
| 20260905231528 | 82 | 142 | 0.0 | 0.0 | 0.00 | 0.31 | 0.31 | 75 | 1010.6 |
| 20260905230025 | 82 | 142 | 0.0 | 0.0 | 0.00 | 0.31 | 0.31 | 75 | 1010.8 |
| 20260905224524 | 82 | 142 | 0.0 | 0.0 | 0.00 | 0.31 | 0.31 | 75 | 1010.8 |
| 20260905223023 | 81 | 131 | 0.0 | 0.0 | 0.00 | 0.31 | 0.31 | 74 | 1010.9 |
| 20260905221523 | 81 | 131 | 0.0 | 0.9 | 0.00 | 0.31 | 0.31 | 73 | 1010.9 |
| 20260905220022 | 81 | 113 | 0.0 | 0.9 | 0.00 | 0.31 | 0.31 | 77 | 1010.8 |
| 20260905214523 | 80 | 157 | 0.0 | 0.0 | 0.00 | 0.31 | 0.31 | 84 | 1010.9 |
| 20260905213020 | 79 | 157 | 0.0 | 0.0 | 0.00 | 0.31 | 0.31 | 86 | 1011.1 |
| 20260905211520 | 79 | 162 | 0.0 | 0.0 | 0.00 | 0.31 | 0.31 | 87 | 1011.2 |
| 20260905210026 | 79 | 163 | 0.0 | 0.0 | 0.00 | 0.31 | 0.31 | 87 | 1011.2 |
| 20260905204516 | 78 | 163 | 0.0 | 1.7 | 0.00 | 0.31 | 0.31 | 87 | 1011.1 |
| 20260905203014 | 77 | 169 | 0.0 | 0.0 | 0.00 | 0.31 | 0.31 | 89 | 1011.3 |
| 20260905201512 | 77 | 169 | 0.0 | 0.0 | 0.00 | 0.31 | 0.31 | 90 | 1011.5 |
| 20260905200010 | 76 | 181 | 0.0 | 0.9 | 0.00 | 0.31 | 0.31 | 89 | 1011.8 |
| 20260905194508 | 76 | 189 | 0.0 | 1.7 | 0.00 | 0.31 | 0.31 | 89 | 1012.0 |
| 20260905193006 | 75 | 292 | 1.7 | 4.3 | 0.01 | 0.31 | 0.31 | 91 | 1013.0 |
| 20260905191505 | 76 | 296 | 2.6 | 7.0 | 0.02 | 0.31 | 0.31 | 90 | 1013.2 |
| 20260905190007 | 76 | 280 | 2.6 | 5.2 | 0.03 | 0.31 | 0.31 | 89 | 1013.3 |
| 20260905184602 | 77 | 125 | 0.0 | 6.1 | 0.04 | 0.31 | 0.31 | 87 | 1013.3 |
| 20260905183001 | 78 | 145 | 0.0 | 0.9 | 0.16 | 0.30 | 0.30 | 90 | 1013.0 |
| 20260905181600 | 77 | 150 | 0.0 | 0.0 | 0.28 | 0.28 | 0.28 | 90 | 1013.4 |
| 20260905180057 | 78 | 124 | 0.0 | 1.7 | 0.28 | 0.28 | 0.28 | 86 | 1013.8 |
| 20260905174602 | 80 | 181 | 0.9 | 5.2 | 0.27 | 0.27 | 0.27 | 81 | 1014.0 |
| 20260905173057 | 87 | 135 | 0.9 | 5.2 | 0.16 | 0.16 | 0.16 | 73 | 1013.9 |
| 20260905171624 | 92 | 124 | 0.0 | 1.7 | 0.00 | 0.00 | 0.00 | 65 | 1013.4 |
| 20260905164552 | 91 | 118 | 0.9 | 4.3 | 0.00 | 0.00 | 0.00 | 68 | 1013.6 |
| 20260905163054 | 88 | 136 | 0.0 | 1.7 | 0.00 | 0.00 | 0.00 | 72 | 1013.7 |